Weather Roundup
Issued by NWS Chicago, IL

Home | Current Version | Previous Version | Graphics & Text | Print | Product List | Glossary On
Versions: 1 2 3 4 5 6 7 8 9 10 11 12 13 14 15 16 17 18 19 20 21 22 23 24 25 26 27 28 29 30 31 32 33 34 35 36 37 38 39 40 41 42 43 44 45 46 47 48 49 50
000
NZUS59 KLOT 021803
HRRLOT

CHICAGO AREA WEATHER ROUNDUP
NATIONAL WEATHER SERVICE CHICAGO/ROMEOVILLE IL
1200 PM CST FRI DEC 02 2016

NOTE: "FAIR" INDICATES FEW OR NO CLOUDS BELOW 12,000 FEET WITH NO
SIGNIFICANT WEATHER AND/OR OBSTRUCTIONS TO VISIBILITY.

* THESE STATIONS ARE NOT UNDER NWS QUALITY CONTROL. THEY ALSO MAY NOT
  REPORT WEATHER SUCH AS PRECIPITATION OR FOG.

ILZ005-006-012>014-019>023-021900-
NORTHEAST ILLINOIS

CITY           SKY/WX    TMP DP  RH WIND       PRES   REMARKS
OHARE          CLOUDY    40  28  62 NW14      30.15S
6HR MIN TEMP:  37; 6HR MAX TEMP:  40; 6HR PCP: TRACE;

MIDWAY         CLOUDY    39  30  70 W12       30.17S
6HR MIN TEMP:  38; 6HR MAX TEMP:  40;

AURORA         PTSUNNY   38  32  79 NW13      30.18S
6HR MIN TEMP:  37; 6HR MAX TEMP:  40;

LANSING*       CLOUDY    39  33  78 W10G18    30.18R
WAUKEGAN       CLOUDY    37  25  61 NW12      30.16R
6HR MIN TEMP:  34; 6HR MAX TEMP:  38; 6HR PCP: TRACE;

DUPAGE AIRPORT CLOUDY    38  32  79 W8        30.16S
6HR MIN TEMP:  34; 6HR MAX TEMP:  38; 6HR PCP:  0.02;

WHEELING       CLOUDY    37  28  70 NW9       30.18R
6HR MIN TEMP:  37; 6HR MAX TEMP:  38;

KANKAKEE*      CLOUDY    40  33  77 W10       30.20S
MORRIS*        CLOUDY    40  34  80 W12       30.18S
NORTHERLY ISL    N/A     40  29  65 NW6         N/A
$$

WIZ051-052-058>065-066-070>072-021900-
SOUTHEAST WISCONSIN

CITY           SKY/WX    TMP DP  RH WIND       PRES   REMARKS
MILWAUKEE      CLOUDY    36  22  56 NW12      30.16S
6HR MIN TEMP:  35; 6HR MAX TEMP:  37;

KENOSHA*       CLOUDY    36  24  62 NW12      30.17R
RACINE*        CLOUDY    36  23  59 NW8       30.18R
BURLINGTON     CLOUDY    34  25  69 NW12G18   30.17R WCI  25
WAUKESHA       CLOUDY    32  23  69 NW10      30.16S WCI  24
WEST BEND      CLOUDY    32  27  80 NW9       30.15S WCI  24
$$

INZ001>003-010>013-019-020-021900-
NORTHWEST INDIANA

CITY           SKY/WX    TMP DP  RH WIND       PRES   REMARKS
GARY*          CLOUDY    41  30  65 W12G25    30.18R
MICHIGAN CITY* NOT AVBL
RENSSELAER*    NOT AVBL
VALPARAISO     CLOUDY    40  31  70 W15       30.17R
$$

LMZ740>746-021900-
SOUTHERN LAKE MICHIGAN

STATION/POSITION TIME  SKY/WX   TEMP WIND        PRES    VSBY
                                AIR  DIR/SP/G
                 (UTC)          (F)  (DEG/KT/KT) (MB)    (MI)
HARRISON CRIB    1740            40  330/ 10/ 11   N/A
BURNHAM HARBOR   1800            40  300/ 12       N/A
CALUMET HARBOR   1730            39  280/  6/ 11 1020.9S
BURNS HARBOR     1740            40  280/ 17/ 20 1021.3S
MICHIGAN CITY    1740            39  280/ 16/ 17   N/A
$$

ABBREVIATIONS USED IN REMARKS
   TC - TEMPERATURE IN CELSIUS
  WCI - WIND CHILL INDEX
   HX - HEAT INDEX
  VSB - VISIBILITY
$$




USA.gov is the U.S. government's official web portal to all federal, state and local government web resources and services.